Wind_Speed
57 58 57 58 59 60 60 61 61 61 60 60 61 61 62 62 63 63 63 62 62 62 61 61 61 61 61 61 61 61 61 62 62 62 61 61 61 60
59 59 59 59 59 60 60 60 61 62 62 61 62 63 63 63 63 63 63 62 63 62 62 62 63 63 63 63 63 62 63 63 63 64 63 63 62 62
59 59 59 60 60 60 61 61 62 63 62 61 62 62 63 63 63 63 63 62 62 62 62 62 62 63 64 64 65 64 65 65 65 65 65 65 64 64
59 59 59 60 60 61 61 61 61 62 62 61 60 60 61 62 62 62 63 62 62 61 61 62 62 63 64 64 64 65 65 66 65 66 66 66 66 65
58 58 59 60 61 62 61 61 61 61 61 61 59 59 59 60 61 61 61 61 61 60 61 61 62 63 64 64 64 64 65 65 65 64 65 65 65 65
58 58 58 59 60 61 61 61 61 60 60 60 59 58 58 59 60 60 59 59 59 59 59 59 60 60 61 62 62 62 62 62 63 63 63 64 64 64
58 58 58 57 57 58 59 59 59 59 58 58 58 58 57 57 58 57 57 57 56 57 57 57 57 58 59 59 59 59 60 59 59 60 61 62 63 63
57 57 56 55 56 56 56 57 57 57 57 58 57 57 56 56 57 56 55 55 54 54 55 55 55 55 56 56 57 57 57 57 57 58 58 59 60 61
54 55 54 54 55 55 55 55 56 56 56 56 56 55 55 54 54 54 53 53 52 52 53 53 54 54 54 54 54 55 55 55 56 56 57 57 58 59
51 52 52 52 53 53 54 54 54 55 55 55 55 53 53 52 51 52 52 51 50 50 51 51 51 51 50 50 51 52 53 53 53 54 55 56 57 58
50 51 51 50 51 52 52 52 52 52 52 53 53 51 50 49 49 49 49 48 47 46 47 48 46 47 47 48 48 48 50 51 51 52 53 54 56 57
49 49 49 49 50 50 50 50 49 49 49 49 48 48 47 47 47 47 46 46 45 44 45 45 44 45 44 44 45 46 46 47 48 48 49 51 53 54
48 48 48 48 49 49 49 48 47 47 47 46 45 45 45 45 45 45 45 45 43 42 43 44 43 43 43 41 42 43 43 44 44 45 46 48 50 52
46 46 47 47 47 46 46 46 46 45 44 43 43 43 43 43 43 44 44 44 43 41 41 41 41 41 42 41 40 41 41 42 43 44 45 47 49 50
45 45 45 45 45 44 43 43 44 43 42 42 42 41 41 41 41 42 42 42 41 40 40 41 41 41 41 41 40 40 41 41 41 42 43 44 46 47
44 43 43 43 42 42 41 41 41 41 41 41 41 40 40 40 40 40 40 41 40 39 39 39 40 40 40 40 40 40 41 41 41 41 42 42 43 44
43 42 42 42 41 40 40 40 40 39 39 39 40 39 39 39 38 38 39 39 39 39 38 38 39 39 40 40 40 40 40 40 41 41 41 41 41 41
41 41 40 39 39 39 39 39 39 38 38 38 38 38 38 38 38 38 38 38 39 39 39 39 38 38 39 39 39 39 39 39 38 39 39 40 40 40
39 39 38 38 38 38 38 38 37 38 38 37 37 37 37 38 37 36 36 37 38 38 38 38 38 38 38 38 37 38 37 37 37 36 37 37 37 38
37 37 37 37 37 37 37 36 36 36 36 36 36 36 36 36 36 35 35 35 35 36 36 36 36 36 36 36 35 35 35 34 33 34 34 33 34 35
35 35 35 34 34 34 35 35 35 35 34 35 35 35 35 34 34 34 33 33 34 34 34 34 34 34 34 34 34 34 34 34 33 32 32 32 32 32
33 32 32 32 32 32 33 34 34 33 32 32 32 33 33 33 33 33 32 31 32 33 32 32 33 33 33 32 32 32 32 33 32 32 32 32 32 32
31 30 30 30 30 30 30 30 30 31 31 30 31 31 31 32 32 31 31 30 31 31 31 30 31 31 31 31 31 31 31 32 31 30 31 31 31 31
Wind_Direction
270 269 268 269 269 268 268 267 267 266 265 265 266 266 267 267 267 266 265 264 263 262 262 261 261 260 260 259 259 258 258 257 256 256 256 256 255 255
271 270 269 270 270 269 268 268 268 268 267 266 266 267 267 267 267 266 265 264 263 262 262 261 261 260 260 259 259 258 258 257 256 256 255 255 254 254
271 270 270 270 269 270 269 268 268 268 268 268 268 267 267 267 266 265 264 263 262 262 262 261 261 260 260 260 259 259 258 258 256 255 254 253 253 253
270 270 271 270 270 269 270 269 268 269 270 269 268 268 268 267 266 264 263 263 262 262 262 261 261 260 260 260 260 260 259 258 256 255 253 253 253 252
271 272 271 271 270 268 269 269 269 269 270 269 269 268 268 267 266 264 264 263 262 262 261 262 262 261 260 260 260 260 259 258 256 254 253 252 251 251
273 272 271 271 269 268 268 269 269 269 269 270 269 268 268 267 265 264 263 263 262 262 262 262 262 262 261 260 260 260 259 257 255 253 252 251 250 249
273 272 271 270 269 269 268 268 268 268 269 269 270 269 267 266 265 264 263 262 262 262 262 262 262 262 261 260 259 258 257 256 255 253 252 251 249 248
274 273 272 271 269 269 269 268 268 268 268 269 269 269 268 266 265 264 262 261 261 261 262 261 262 262 262 261 260 258 257 256 254 253 252 251 249 248
276 275 274 272 271 269 269 268 269 269 269 269 269 269 268 267 265 264 263 262 261 261 261 261 262 262 261 260 259 258 257 256 255 253 252 250 250 249
277 276 275 273 272 270 269 269 268 268 268 268 268 268 268 267 265 264 263 262 260 260 261 262 261 261 261 259 258 257 257 256 255 253 252 251 250 250
277 276 275 274 273 271 270 269 268 268 268 267 266 266 266 266 265 263 262 260 259 259 260 262 262 261 261 259 257 256 256 255 255 254 253 251 250 250
278 276 276 275 274 273 272 270 269 267 266 265 264 263 264 264 264 263 261 260 259 258 259 261 262 263 261 257 256 255 255 255 255 255 253 252 251 250
279 276 275 275 274 274 273 271 270 268 266 264 262 261 262 262 262 261 260 259 258 258 259 261 262 261 260 256 254 255 255 255 255 255 254 253 253 252
279 277 276 274 273 272 271 271 270 269 266 264 262 261 261 260 260 259 258 258 258 259 260 261 261 260 259 256 254 255 256 257 257 257 256 256 255 254
279 277 276 275 273 271 270 270 269 268 266 264 263 262 261 260 258 257 256 256 257 259 259 260 260 259 258 257 255 255 257 257 258 258 257 256 255 254
278 276 275 273 271 270 267 266 266 267 267 265 263 262 261 260 258 256 255 256 256 257 258 258 258 257 258 258 257 256 257 258 259 258 256 256 255 254
278 277 274 271 269 268 267 265 265 265 266 266 264 263 262 260 258 256 256 256 256 255 255 257 259 259 258 258 257 257 258 258 258 258 257 257 256 256
278 276 273 270 268 266 265 264 264 264 265 265 264 263 262 259 258 257 256 256 256 256 256 257 258 257 256 256 258 258 258 259 259 258 257 257 257 256
277 275 273 270 268 266 264 263 262 263 264 263 262 262 260 258 257 254 254 255 255 255 255 256 257 257 255 254 256 258 259 259 258 257 256 257 256 253
277 275 273 270 267 265 264 263 262 262 262 261 260 259 258 256 254 252 252 253 251 252 253 254 256 256 256 255 254 256 257 257 256 255 256 255 254 252
277 275 274 271 268 265 264 262 262 261 261 260 258 256 255 253 252 251 250 251 249 249 250 252 254 255 255 255 254 253 253 255 255 254 254 254 253 253
278 277 274 271 269 267 264 263 262 259 259 258 256 254 253 252 252 251 250 251 248 247 248 250 252 253 254 255 254 252 251 252 253 253 254 253 253 252
277 276 275 273 270 268 265 263 261 257 256 256 254 253 253 252 251 250 249 249 247 247 247 249 251 253 255 254 253 251 250 249 250 252 253 252 252 252
Height
5606 5606 5607 5608 5608 5608 5609 5609 5611 5614 5619 5621 5620 5620 5620 5621 5622 5623 5625 5626 5628 5630 5632 5635 5637 5640 5643 5646 5648 5651 5654 5657 5661 5664 5668 5671 5674 5678
5589 5589 5590 5590 5590 5591 5591 5591 5591 5593 5597 5602 5601 5601 5601 5602 5602 5603 5605 5606 5608 5610 5613 5615 5618 5620 5623 5626 5629 5632 5635 5638 5642 5645 5649 5652 5656 5659
5572 5572 5572 5572 5572 5572 5572 5573 5573 5574 5577 5581 5581 5581 5581 5582 5582 5583 5585 5587 5589 5591 5593 5595 5598 5600 5603 5606 5609 5612 5615 5618 5622 5625 5629 5633 5637 5642
5555 5555 5555 5554 5554 5554 5554 5555 5555 5555 5556 5560 5562 5561 5561 5561 5562 5564 5565 5567 5570 5572 5573 5575 5578 5580 5583 5586 5588 5591 5594 5597 5601 5605 5610 5615 5619 5621
5538 5537 5537 5536 5536 5536 5536 5536 5536 5537 5537 5539 5542 5542 5542 5542 5542 5544 5546 5548 5550 5552 5554 5556 5558 5561 5563 5566 5568 5571 5574 5577 5581 5585 5588 5592 5597 5602
5520 5520 5519 5518 5517 5517 5517 5518 5518 5519 5519 5520 5522 5524 5524 5523 5523 5525 5528 5530 5532 5534 5535 5537 5539 5541 5543 5546 5549 5551 5553 5556 5559 5563 5568 5572 5577 5582
5503 5502 5501 5500 5499 5499 5499 5500 5500 5501 5501 5502 5504 5505 5506 5506 5506 5507 5510 5512 5515 5515 5517 5520 5522 5524 5525 5527 5529 5531 5534 5537 5540 5544 5548 5553 5558 5563
5486 5485 5484 5482 5482 5482 5482 5482 5482 5483 5484 5485 5486 5487 5489 5489 5489 5490 5492 5495 5499 5501 5500 5503 5503 5506 5507 5509 5511 5513 5516 5519 5522 5526 5530 5534 5539 5544
5469 5468 5467 5466 5465 5465 5465 5465 5466 5466 5467 5467 5469 5470 5471 5473 5473 5475 5476 5478 5481 5483 5482 5486 5487 5489 5491 5492 5494 5496 5498 5502 5505 5509 5513 5517 5521 5526
5453 5452 5451 5450 5448 5448 5448 5449 5450 5450 5451 5451 5453 5454 5454 5455 5456 5458 5459 5462 5465 5466 5466 5469 5471 5473 5475 5477 5478 5480 5482 5485 5488 5492 5496 5500 5504 5508
5438 5436 5434 5434 5433 5432 5432 5433 5434 5435 5434 5435 5436 5437 5438 5439 5440 5441 5444 5446 5449 5452 5452 5453 5456 5458 5460 5462 5463 5465 5467 5470 5473 5476 5479 5483 5487 5491
5423 5421 5419 5418 5417 5416 5416 5416 5418 5419 5419 5420 5421 5422 5423 5424 5425 5426 5428 5431 5434 5438 5439 5440 5442 5443 5446 5448 5449 5451 5453 5455 5458 5461 5464 5467 5470 5474
5407 5406 5405 5403 5402 5401 5401 5401 5402 5403 5404 5405 5406 5408 5409 5410 5411 5413 5415 5417 5420 5424 5426 5426 5428 5429 5431 5435 5437 5438 5440 5442 5444 5446 5449 5452 5455 5458
5393 5391 5390 5389 5388 5388 5387 5387 5388 5388 5389 5391 5392 5394 5396 5397 5399 5400 5402 5404 5407 5410 5412 5413 5414 5416 5418 5421 5424 5426 5428 5429 5431 5433 5435 5437 5440 5443
5378 5377 5375 5375 5374 5374 5374 5374 5374 5374 5376 5377 5379 5381 5382 5384 5385 5387 5389 5392 5395 5397 5398 5400 5402 5404 5406 5408 5411 5413 5415 5417 5418 5420 5422 5424 5427 5429
5364 5363 5362 5361 5361 5361 5361 5361 5361 5362 5363 5365 5366 5368 5369 5371 5372 5374 5377 5379 5382 5385 5387 5388 5390 5391 5393 5396 5398 5401 5403 5405 5406 5407 5409 5411 5414 5416
5350 5349 5349 5348 5348 5348 5348 5349 5349 5350 5351 5352 5353 5355 5356 5358 5360 5362 5364 5366 5370 5373 5375 5376 5377 5379 5381 5383 5386 5388 5390 5392 5394 5395 5397 5399 5401 5404
5336 5336 5335 5335 5335 5335 5336 5336 5337 5338 5339 5340 5341 5343 5344 5346 5348 5350 5352 5354 5357 5360 5363 5364 5365 5367 5369 5372 5374 5375 5378 5380 5381 5382 5384 5386 5390 5392
5323 5322 5322 5322 5322 5322 5323 5324 5325 5326 5327 5328 5330 5331 5332 5334 5336 5338 5341 5343 5345 5348 5351 5353 5354 5355 5358 5361 5364 5364 5366 5368 5369 5371 5373 5375 5378 5380
5310 5310 5309 5309 5309 5310 5311 5312 5313 5314 5315 5317 5318 5320 5321 5323 5325 5327 5329 5332 5334 5337 5340 5342 5343 5345 5347 5350 5353 5354 5355 5356 5358 5360 5362 5364 5367 5369
5299 5298 5297 5297 5297 5298 5299 5300 5301 5303 5304 5306 5307 5309 5310 5312 5314 5316 5319 5321 5324 5326 5329 5332 5333 5335 5336 5338 5341 5344 5345 5346 5348 5350 5352 5354 5357 5360
5288 5287 5287 5286 5287 5287 5288 5289 5290 5292 5293 5295 5297 5298 5300 5302 5304 5306 5309 5311 5313 5316 5319 5322 5323 5324 5326 5328 5330 5333 5335 5337 5338 5340 5342 5345 5347 5351
5278 5277 5277 5276 5276 5277 5278 5279 5280 5282 5283 5285 5287 5289 5291 5293 5295 5297 5299 5301 5304 5306 5309 5311 5313 5315 5316 5318 5321 5323 5325 5327 5329 5331 5334 5335 5338 5341